FW0067 Weather Reports


time (UTC)temp
C
wind
direction
speed
KPH
gust
KPH
rain 1hr
cm
rain 24hr
cm
rain mn
cm
humidity
%
barometer
mb
20190422143705 15 160 3.2 9.7 0.00 0.00 0.00 87 1031.4
20190422143204 15 167 1.6 9.7 0.00 0.00 0.00 87 1031.3
20190422142704 15 166 1.6 9.7 0.00 0.00 0.00 87 1031.3
20190422142204 15 152 1.6 9.7 0.00 0.00 0.00 88 1031.3
20190422141705 15 163 1.6 9.7 0.00 0.00 0.00 88 1031.3
20190422141204 15 156 1.6 9.7 0.00 0.00 0.00 88 1031.3
20190422140704 15 147 3.2 8.0 0.00 0.00 0.00 88 1031.2
20190422140204 15 128 1.6 8.0 0.00 0.00 0.00 88 1031.2
20190422135704 15 155 3.2 8.0 0.00 0.00 0.00 88 1031.1
20190422135204 15 170 1.6 16.1 0.00 0.00 0.00 88 1031.1
20190422134704 15 153 4.8 16.1 0.00 0.00 0.00 88 1031.1
20190422134204 15 141 3.2 11.3 0.00 0.00 0.00 88 1031.1
20190422133704 15 171 1.6 11.3 0.00 0.00 0.00 88 1031.1
20190422133204 15 180 1.6 11.3 0.00 0.00 0.00 88 1031.1
20190422132705 15 151 3.2 11.3 0.00 0.00 0.00 88 1031.0
20190422132204 15 158 1.6 9.7 0.00 0.00 0.00 88 1031.0
20190422131704 15 139 3.2 9.7 0.00 0.00 0.00 88 1030.9
20190422131204 15 140 1.6 8.0 0.00 0.00 0.00 88 1030.8
20190422130704 15 153 3.2 8.0 0.00 0.00 0.00 88 1030.7
20190422130205 15 183 1.6 14.5 0.00 0.00 0.00 88 1030.7
20190422125704 15 125 3.2 14.5 0.00 0.00 0.00 88 1030.7
20190422125204 15 149 3.2 11.3 0.00 0.00 0.00 88 1030.8
20190422124704 15 166 4.8 12.9 0.00 0.00 0.00 88 1030.8
20190422124204 15 132 4.8 12.9 0.00 0.00 0.00 88 1030.8
20190422123705 15 136 4.8 12.9 0.00 0.00 0.00 88 1030.8
20190422123204 15 163 1.6 9.7 0.00 0.00 0.00 88 1030.8
20190422122705 15 150 1.6 9.7 0.00 0.00 0.00 87 1030.7
20190422122205 15 156 1.6 9.7 0.00 0.00 0.00 87 1030.5
20190422121705 15 157 0.0 3.2 0.00 0.00 0.00 86 1030.6
20190422121204 16 164 0.0 8.0 0.00 0.00 0.00 86 1030.7
20190422120704 16 158 0.0 8.0 0.00 0.00 0.00 86 1030.7
20190422120204 16 147 1.6 9.7 0.00 0.00 0.00 86 1030.6
20190422115704 16 147 3.2 9.7 0.00 0.00 0.00 86 1030.6
20190422115204 16 147 3.2 14.5 0.00 0.00 0.00 86 1030.6
20190422114704 16 153 1.6 14.5 0.00 0.00 0.00 86 1030.6
20190422114204 16 157 3.2 11.3 0.00 0.00 0.00 86 1030.6
20190422113704 16 168 1.6 14.5 0.00 0.00 0.00 85 1030.6
20190422113204 16 102 3.2 14.5 0.00 0.00 0.00 85 1030.6
20190422112704 16 122 4.8 11.3 0.00 0.00 0.00 85 1030.6
20190422112204 16 134 3.2 19.3 0.00 0.00 0.00 85 1030.6
20190422111704 16 125 3.2 19.3 0.00 0.00 0.00 85 1030.5
20190422111204 16 125 3.2 19.3 0.00 0.00 0.00 85 1030.5
20190422110704 16 127 1.6 14.5 0.00 0.00 0.00 85 1030.5
20190422110204 16 127 1.6 14.5 0.00 0.00 0.00 85 1030.5
20190422105704 16 109 3.2 9.7 0.00 0.00 0.00 85 1030.5
20190422105204 16 148 0.0 11.3 0.00 0.00 0.00 84 1030.5
20190422104704 16 128 3.2 11.3 0.00 0.00 0.00 85 1030.4
20190422104204 16 104 1.6 11.3 0.00 0.00 0.00 84 1030.2
20190422103704 16 124 0.0 9.7 0.00 0.00 0.00 84 1030.1
20190422103204 16 118 1.6 14.5 0.00 0.00 0.00 84 1030.1
20190422102704 16 60 1.6 14.5 0.00 0.00 0.00 84 1030.0
20190422102204 16 148 1.6 14.5 0.00 0.00 0.00 84 1029.9
20190422101704 16 161 3.2 11.3 0.00 0.00 0.00 84 1029.9
20190422101204 16 156 1.6 11.3 0.00 0.00 0.00 84 1029.9
20190422100704 17 159 1.6 11.3 0.00 0.00 0.00 84 1029.8
20190422100204 17 152 3.2 16.1 0.00 0.00 0.00 84 1029.7
20190422095704 17 177 4.8 16.1 0.00 0.00 0.00 84 1029.7
20190422095205 17 151 3.2 11.3 0.00 0.00 0.00 84 1029.6
20190422094705 17 123 3.2 11.3 0.00 0.00 0.00 84 1029.5
20190422094205 17 136 3.2 16.1 0.00 0.00 0.00 84 1029.4
20190422093705 17 141 3.2 16.1 0.00 0.00 0.00 84 1029.2
20190422093205 17 164 1.6 19.3 0.00 0.00 0.00 84 1029.2
20190422092704 17 148 4.8 19.3 0.00 0.00 0.00 84 1029.1
20190422092204 17 142 3.2 19.3 0.00 0.00 0.00 84 1029.0
20190422091204 17 130 3.2 19.3 0.00 0.00 0.00 83 1028.8
20190422090704 17 139 8.0 19.3 0.00 0.00 0.00 83 1028.7
20190422090207 17 125 3.2 12.9 0.00 0.00 0.00 83 1028.6
20190422085705 17 154 3.2 9.7 0.00 0.00 0.00 83 1028.5
20190422085205 17 157 3.2 8.0 0.00 0.00 0.00 82 1028.4
20190422084705 17 163 1.6 11.3 0.00 0.00 0.00 82 1028.5
20190422084204 17 161 4.8 11.3 0.00 0.00 0.00 82 1028.4
20190422083705 17 160 6.4 8.0 0.00 0.00 0.00 83 1028.3
20190422083205 17 169 3.2 9.7 0.00 0.00 0.00 82 1028.2
20190422082704 17 175 4.8 9.7 0.00 0.00 0.00 82 1028.1
20190422082204 17 166 3.2 11.3 0.00 0.00 0.00 82 1028.1
20190422081704 17 155 4.8 11.3 0.00 0.00 0.00 82 1027.9
20190422081204 17 146 6.4 11.3 0.00 0.00 0.00 82 1027.8
20190422080704 18 144 1.6 11.3 0.00 0.00 0.00 81 1027.7
20190422080204 18 137 0.0 11.3 0.00 0.00 0.00 81 1027.5
20190422075704 18 129 3.2 14.5 0.00 0.00 0.00 80 1027.4
20190422075204 18 142 1.6 14.5 0.00 0.00 0.00 80 1027.3
20190422074705 18 145 3.2 12.9 0.00 0.00 0.00 79 1027.3
20190422074204 18 130 1.6 9.7 0.00 0.00 0.00 79 1027.2
20190422073704 19 140 3.2 9.7 0.00 0.00 0.00 78 1027.1
20190422073204 19 121 4.8 9.7 0.00 0.00 0.00 78 1027.0
20190422072704 19 166 3.2 11.3 0.00 0.00 0.00 77 1027.0
20190422072204 20 172 4.8 16.1 0.00 0.00 0.00 77 1027.0
20190422071704 20 148 3.2 16.1 0.00 0.00 0.00 76 1026.9
20190422071204 20 164 4.8 16.1 0.00 0.00 0.00 76 1026.9
20190422070704 20 126 4.8 16.1 0.00 0.00 0.00 75 1026.9
20190422070204 20 163 4.8 14.5 0.00 0.00 0.00 74 1026.7
20190422065704 21 135 3.2 16.1 0.00 0.00 0.00 73 1026.5
20190422065204 21 183 3.2 19.3 0.00 0.00 0.00 72 1026.3
20190422064704 21 137 8.0 19.3 0.00 0.00 0.00 71 1026.1
20190422064204 22 165 4.8 16.1 0.00 0.00 0.00 70 1026.1
20190422063704 22 150 4.8 16.1 0.00 0.00 0.00 68 1025.9
20190422063205 23 156 3.2 16.1 0.00 0.00 0.00 66 1025.8
20190422062904 23 203 4.8 16.1 0.00 0.00 0.00 63 1025.8
20190422062204 24 253 3.2 11.3 0.00 0.00 0.00 61 1025.6
20190422061704 24 131 4.8 9.7 0.00 0.00 0.00 57 1025.5
20190422061205 24 146 3.2 11.3 0.00 0.00 0.00 55 1025.4
20190422060704 24 163 4.8 11.3 0.00 0.00 0.00 55 1025.3
20190422060204 25 156 3.2 8.0 0.00 0.00 0.00 54 1025.2
20190422055704 25 157 1.6 9.7 0.00 0.00 0.00 54 1025.2
20190422055204 25 115 3.2 9.7 0.00 0.00 0.00 53 1025.2
20190422054704 25 203 1.6 9.7 0.00 0.00 0.00 54 1025.2
20190422054205 25 275 1.6 9.7 0.00 0.00 0.00 49 1025.1
20190422053704 25 286 4.8 9.7 0.00 0.00 0.00 50 1025.0
20190422053204 25 286 4.8 11.3 0.00 0.00 0.00 52 1024.9
20190422052705 24 307 8.0 11.3 0.00 0.00 0.00 52 1024.9
20190422052205 24 300 4.8 14.5 0.00 0.00 0.00 52 1024.9
20190422051704 25 300 6.4 14.5 0.00 0.00 0.00 51 1024.9
20190422051204 25 308 4.8 14.5 0.00 0.00 0.00 51 1024.9
20190422050705 25 343 4.8 16.1 0.00 0.00 0.00 51 1024.9
20190422050204 25 0 4.8 22.5 0.00 0.00 0.00 52 1024.9
20190422045705 25 11 8.0 22.5 0.00 0.00 0.00 49 1024.9
20190422045205 25 18 14.5 20.9 0.00 0.00 0.00 50 1024.9
20190422044704 25 8 11.3 16.1 0.00 0.00 0.00 49 1024.9
20190422044204 25 341 6.4 16.1 0.00 0.00 0.00 52 1024.9
20190422043704 25 319 8.0 22.5 0.00 0.00 0.00 52 1024.8
20190422043206 25 346 11.3 22.5 0.00 0.00 0.00 52 1024.9
20190422042704 25 13 14.5 20.9 0.00 0.00 0.00 51 1024.9
20190422042204 25 318 11.3 27.4 0.00 0.00 0.00 52 1024.8
20190422041704 25 326 17.7 27.4 0.00 0.00 0.00 52 1024.9
20190422041205 25 333 9.7 24.1 0.00 0.00 0.00 52 1024.8
20190422040704 25 331 14.5 24.1 0.00 0.00 0.00 51 1025.0
20190422040204 25 326 11.3 24.1 0.00 0.00 0.00 52 1025.0
20190422035704 25 337 4.8 22.5 0.00 0.00 0.00 53 1025.0
20190422035204 25 339 9.7 22.5 0.00 0.00 0.00 54 1025.1
20190422034705 25 67 6.4 19.3 0.00 0.00 0.00 55 1025.2
20190422034204 25 336 9.7 19.3 0.00 0.00 0.00 55 1025.2
20190422033704 24 86 8.0 19.3 0.00 0.00 0.00 58 1025.3
20190422033205 23 292 0.0 4.8 0.00 0.00 0.00 61 1025.4
20190422032704 23 314 3.2 4.8 0.00 0.00 0.00 60 1025.4
20190422032205 23 315 0.0 3.2 0.00 0.00 0.00 61 1025.4
20190422031705 23 315 0.0 4.8 0.00 0.00 0.00 60 1025.4
20190422031204 23 315 0.0 4.8 0.00 0.00 0.00 60 1025.4
20190422030704 23 315 0.0 8.0 0.00 0.00 0.00 59 1025.4
20190422030204 23 315 4.8 12.9 0.00 0.00 0.00 60 1025.5
20190422025705 23 342 3.2 19.3 0.00 0.00 0.00 60 1025.5
20190422025206 23 7 6.4 19.3 0.00 0.00 0.00 59 1025.5
20190422024704 23 318 6.4 19.3 0.00 0.00 0.00 62 1025.5
20190422024204 23 142 1.6 8.0 0.00 0.00 0.00 61 1025.6
20190422023705 23 142 3.2 8.0 0.00 0.00 0.00 62 1025.6
20190422023204 23 263 3.2 4.8 0.00 0.00 0.00 63 1025.7
20190422022704 23 327 1.6 4.8 0.00 0.00 0.00 64 1025.9
20190422022204 23 335 0.0 4.8 0.00 0.00 0.00 63 1026.0
20190422021704 23 337 0.0 1.6 0.00 0.00 0.00 63 1025.9
20190422021205 23 337 0.0 8.0 0.00 0.00 0.00 63 1026.0
20190422020704 23 337 1.6 8.0 0.00 0.00 0.00 63 1026.1
20190422020204 23 337 4.8 9.7 0.00 0.00 0.00 62 1026.1
20190422015705 23 335 4.8 9.7 0.00 0.00 0.00 62 1026.1
20190422015205 23 334 3.2 9.7 0.00 0.00 0.00 61 1026.0
20190422014704 23 353 6.4 9.7 0.00 0.00 0.00 62 1026.0
20190422014204 23 331 4.8 12.9 0.00 0.00 0.00 61 1026.1
20190422013704 23 355 6.4 19.3 0.00 0.00 0.00 62 1026.2
20190422013204 23 34 4.8 19.3 0.00 0.00 0.00 62 1026.2
20190422012704 23 357 8.0 19.3 0.00 0.00 0.00 63 1026.2
20190422012204 23 24 4.8 8.0 0.00 0.00 0.00 62 1026.3
20190422011704 23 19 1.6 9.7 0.00 0.00 0.00 63 1026.4
20190422011204 23 6 4.8 11.3 0.00 0.00 0.00 63 1026.5
20190422010704 23 41 1.6 12.9 0.00 0.00 0.00 62 1026.5
20190422010205 23 352 4.8 12.9 0.00 0.00 0.00 64 1026.5
20190422005705 23 35 4.8 12.9 0.00 0.00 0.00 64 1026.5
20190422005204 23 48 3.2 9.7 0.00 0.00 0.00 65 1026.5
20190422004704 22 54 3.2 9.7 0.00 0.00 0.00 66 1026.5
20190422004205 22 5 0.0 4.8 0.00 0.00 0.00 68 1026.6
20190422003704 22 342 1.6 4.8 0.00 0.00 0.00 68 1026.6
20190422003204 22 327 1.6 8.0 0.00 0.00 0.00 69 1026.7
20190422002704 22 327 3.2 8.0 0.00 0.00 0.00 69 1026.8
20190422002204 22 223 0.0 4.8 0.00 0.00 0.00 71 1026.8
20190422001704 21 223 1.6 4.8 0.00 0.00 0.00 72 1026.8
20190422001204 21 223 0.0 4.8 0.00 0.00 0.00 74 1026.8
20190422000704 21 223 0.0 4.8 0.00 0.00 0.00 74 1026.8
20190422000204 20 223 1.6 4.8 0.00 0.00 0.00 74 1026.9
20190421235705 20 223 1.6 4.8 0.00 0.00 0.00 74 1026.8
20190421235204 20 223 3.2 4.8 0.00 0.00 0.00 75 1026.9
20190421234704 20 225 0.0 3.2 0.00 0.00 0.00 77 1026.9
20190421234204 20 225 1.6 4.8 0.00 0.00 0.00 78 1027.0
20190421233704 19 225 1.6 4.8 0.00 0.00 0.00 78 1027.1
20190421233204 19 225 1.6 4.8 0.00 0.00 0.00 80 1027.1
20190421232704 18 225 1.6 4.8 0.00 0.00 0.00 81 1027.2
20190421232204 18 225 1.6 4.8 0.00 0.00 0.00 84 1027.2
20190421231704 18 225 1.6 3.2 0.00 0.00 0.00 85 1027.4
20190421231204 17 225 0.0 4.8 0.00 0.00 0.00 87 1027.4
20190421230704 17 226 0.0 4.8 0.00 0.00 0.00 90 1027.5
20190421230204 16 226 0.0 4.8 0.00 0.00 0.00 91 1027.6
20190421225704 16 226 1.6 4.8 0.00 0.00 0.00 92 1027.6
20190421225204 16 228 1.6 3.2 0.00 0.00 0.00 94 1027.6
20190421224705 15 229 1.6 4.8 0.00 0.00 0.00 94 1027.6
20190421224205 15 229 1.6 4.8 0.00 0.00 0.00 95 1027.6
20190421223704 15 232 0.0 4.8 0.00 0.00 0.00 96 1027.6
20190421223204 14 232 1.6 4.8 0.00 0.00 0.00 96 1027.5
20190421222704 14 232 0.0 3.2 0.00 0.00 0.00 97 1027.5
20190421222204 13 232 0.0 3.2 0.00 0.00 0.00 96 1027.6
20190421221705 13 232 0.0 4.8 0.00 0.00 0.00 96 1027.6
20190421221204 13 232 0.0 4.8 0.00 0.00 0.00 96 1027.6
20190421220705 12 232 1.6 4.8 0.00 0.00 0.00 96 1027.6
20190421220205 12 232 1.6 4.8 0.00 0.00 0.00 96 1027.5
20190421215704 12 233 1.6 4.8 0.00 0.00 0.00 96 1027.7
20190421215204 12 233 0.0 1.6 0.00 0.00 0.00 95 1027.7
20190421214704 12 233 0.0 0.0 0.00 0.00 0.00 95 1027.7
20190421214204 12 233 0.0 1.6 0.00 0.00 0.00 95 1027.6
20190421213704 12 233 0.0 1.6 0.00 0.00 0.00 95 1027.6
20190421213204 12 233 0.0 4.8 0.00 0.00 0.00 95 1027.6
20190421212704 12 233 0.0 4.8 0.00 0.00 0.00 95 1027.4
20190421212205 12 233 1.6 4.8 0.00 0.00 0.00 95 1027.4
20190421211704 12 233 3.2 4.8 0.00 0.00 0.00 95 1027.3
20190421211205 12 233 3.2 4.8 0.00 0.00 0.00 95 1027.3
20190421210704 12 233 1.6 4.8 0.00 0.03 0.00 95 1027.4
20190421210204 12 233 4.8 4.8 0.00 0.03 0.00 94 1027.3
20190421205704 12 233 3.2 4.8 0.00 0.03 0.00 95 1027.1
20190421205204 12 233 0.0 0.0 0.00 0.03 0.00 95 1026.9
20190421204704 12 233 0.0 3.2 0.00 0.03 0.00 95 1026.9
20190421204204 12 233 0.0 3.2 0.00 0.03 0.00 95 1026.8
20190421203704 12 233 0.0 4.8 0.00 0.03 0.00 95 1026.8
20190421203204 12 233 1.6 4.8 0.00 0.03 0.00 95 1026.6
20190421202704 12 233 1.6 4.8 0.00 0.03 0.00 95 1026.7
20190421202205 12 233 0.0 1.6 0.00 0.03 0.00 95 1026.6
20190421201704 12 233 0.0 3.2 0.00 0.03 0.00 95 1026.6
20190421201204 12 233 1.6 3.2 0.00 0.03 0.00 95 1026.5
20190421200704 12 233 0.0 4.8 0.00 0.03 0.00 95 1026.5
20190421200204 12 233 1.6 4.8 0.00 0.03 0.00 95 1026.4
20190421195705 12 233 0.0 3.2 0.00 0.03 0.00 95 1026.4
20190421195204 12 233 1.6 3.2 0.00 0.03 0.00 94 1026.3
20190421194704 12 233 1.6 3.2 0.00 0.03 0.00 94 1026.1
20190421194204 12 233 0.0 0.0 0.00 0.03 0.00 94 1026.2
20190421193704 12 233 0.0 3.2 0.00 0.03 0.00 94 1026.1
20190421193204 12 233 1.6 3.2 0.00 0.03 0.00 94 1026.1
20190421192704 12 233 3.2 4.8 0.00 0.03 0.00 94 1026.1
20190421192204 12 233 1.6 4.8 0.00 0.03 0.00 93 1026.0
20190421191705 12 233 1.6 4.8 0.00 0.03 0.00 94 1026.0
20190421191204 12 233 3.2 4.8 0.00 0.03 0.00 94 1025.9
20190421190704 12 233 0.0 1.6 0.00 0.03 0.00 94 1026.0
20190421190204 12 233 0.0 1.6 0.00 0.03 0.00 93 1026.0
20190421185704 12 233 0.0 1.6 0.00 0.03 0.00 93 1025.9
20190421185204 12 233 0.0 0.0 0.00 0.03 0.00 93 1025.9
20190421184704 12 233 0.0 0.0 0.00 0.03 0.00 93 1026.0
20190421184204 12 233 0.0 3.2 0.00 0.03 0.00 92 1025.9
20190421183705 12 233 0.0 3.2 0.00 0.03 0.00 92 1026.0
20190421183205 12 233 0.0 3.2 0.00 0.03 0.00 93 1025.9
20190421182705 12 233 0.0 0.0 0.00 0.03 0.00 94 1026.0
20190421182204 12 233 0.0 0.0 0.00 0.03 0.00 94 1025.9
20190421181704 12 233 0.0 0.0 0.00 0.03 0.00 93 1025.9
20190421181204 12 233 0.0 0.0 0.00 0.03 0.00 93 1025.9
20190421180704 12 233 0.0 3.2 0.00 0.03 0.00 93 1026.0
20190421180204 12 233 0.0 3.2 0.00 0.03 0.00 92 1025.9
20190421175704 13 233 1.6 3.2 0.00 0.03 0.00 92 1025.8
20190421175204 13 233 0.0 0.0 0.00 0.03 0.00 93 1025.5
20190421174704 13 233 0.0 0.0 0.00 0.03 0.00 93 1025.4
20190421174204 13 233 0.0 0.0 0.00 0.03 0.00 93 1025.4
20190421173704 13 233 0.0 0.0 0.00 0.03 0.00 93 1025.3
20190421173204 13 233 0.0 0.0 0.00 0.03 0.00 92 1025.3
20190421172704 13 233 0.0 0.0 0.00 0.03 0.00 92 1025.4
20190421172204 13 233 0.0 0.0 0.00 0.03 0.00 92 1025.4
20190421171704 13 233 0.0 0.0 0.00 0.03 0.00 92 1025.5
20190421171204 13 233 0.0 0.0 0.00 0.03 0.00 92 1025.6
20190421170704 13 233 0.0 1.6 0.00 0.03 0.00 92 1025.5
20190421170205 13 233 0.0 1.6 0.00 0.03 0.00 92 1025.5
20190421165704 13 233 0.0 4.8 0.00 0.03 0.00 91 1025.6
20190421165204 13 233 0.0 4.8 0.00 0.03 0.00 91 1025.6
20190421164706 13 233 3.2 4.8 0.00 0.03 0.00 91 1025.6
20190421164205 13 234 1.6 4.8 0.00 0.03 0.00 90 1025.7
20190421163704 13 247 3.2 4.8 0.00 0.03 0.00 91 1025.7
20190421163204 13 247 1.6 4.8 0.00 0.03 0.00 90 1025.8
20190421162706 14 247 3.2 4.8 0.00 0.03 0.00 90 1025.8
20190421162204 14 247 0.0 3.2 0.00 0.03 0.00 90 1025.8
20190421161704 14 247 0.0 3.2 0.00 0.03 0.00 91 1025.8
20190421161204 14 247 0.0 3.2 0.00 0.03 0.00 91 1025.9
20190421160704 14 247 0.0 1.6 0.00 0.03 0.00 90 1025.8
20190421160204 14 247 0.0 3.2 0.00 0.03 0.00 90 1025.8
20190421155704 14 247 0.0 3.2 0.00 0.03 0.00 90 1025.8
20190421155204 14 247 0.0 3.2 0.00 0.03 0.00 90 1025.9
20190421154704 14 247 0.0 3.2 0.00 0.03 0.00 89 1025.9
20190421154205 14 247 1.6 4.8 0.00 0.03 0.00 89 1026.1
20190421153704 14 247 1.6 4.8 0.00 0.03 0.00 88 1026.1
20190421153204 15 247 0.0 4.8 0.00 0.03 0.00 87 1026.1
20190421152705 15 247 3.2 4.8 0.00 0.03 0.00 87 1026.1
20190421152205 15 249 1.6 3.2 0.00 0.03 0.00 88 1026.1
20190421151704 15 249 1.6 3.2 0.00 0.03 0.00 88 1026.1
20190421151204 15 249 0.0 3.2 0.00 0.03 0.00 89 1026.2
20190421150704 15 249 0.0 0.0 0.00 0.03 0.00 88 1026.1
20190421150204 15 249 0.0 0.0 0.00 0.03 0.00 88 1026.1
20190421145705 15 249 0.0 0.0 0.00 0.03 0.00 86 1026.1
20190421145204 16 249 0.0 3.2 0.00 0.03 0.00 87 1026.1
20190421144704 16 249 0.0 3.2 0.00 0.03 0.00 88 1026.2
20190421144204 16 249 1.6 3.2 0.00 0.03 0.00 89 1026.1